Change the Weather History Date:

Sunday, January 19, 2014

  Actual Average Record
Temperature  
Mean Temperature 22 °F -  
Max Temperature 32 °F 27 °F 44 °F (1968)
Min Temperature 12 °F 10 °F -19 °F (1970)
Degree Days  
Heating Degree Days 43    
Moisture  
Dew Point 20 °F    
Average Humidity 79    
Maximum Humidity 93    
Minimum Humidity 66    
Precipitation  
Precipitation 0.00 in - - ()
Sea Level Pressure  
Sea Level Pressure 29.59 in    
Wind  
Wind Speed 12 mph (West)    
Max Wind Speed 22 mph    
Max Gust Speed 29 mph    
Visibility 10 miles    
Events Snow    
Averages and records for this station are not official NWS values.
T = Trace of Precipitation, MM = Missing Value Source: NWS Daily Summary

Daily Weather History Graph

Daily Weather History Graph

Search for Another Location

Airport or City:

Trip Planner

Search our weather history database for the weather conditions in past years. The results will help you decide how hot, cold, wet, or windy it might be!

Date:

Astronomy

Jan. 19, 2014 Rise Set
Actual Time 7:20 AM CST 4:43 PM CST
Civil Twilight 6:48 AM CST 5:15 PM CST
Nautical Twilight 6:12 AM CST 5:50 PM CST
Astronomical Twilight 5:38 AM CST 6:25 PM CST
Moon 8:30 PM CST (1/19) 8:41 AM CST (1/19)
Length of Visible Light 10h 26m
Length of Day
9h 23m
Waning Gibbous, 89% of the Moon is Illuminated
Jan 19
Waning Gibbous
Jan 23
Last Quarter
Jan 30
New
Feb 6
First Quarter
Feb 14
Full

Hourly Weather History & Observations

Time (CST) Temp. Windchill Dew Point Humidity Pressure Visibility Wind Dir Wind Speed Gust Speed Precip Events Conditions
12:56 AM 12.9 °F -0.9 °F 9.0 °F 84% 29.77 in 10.0 mi West 11.5 mph 20.7 mph N/A   Clear
1:56 AM 16.0 °F 0.6 °F 10.9 °F 81% 29.75 in 10.0 mi West 16.1 mph - N/A   Overcast
2:56 AM 18.0 °F 4.2 °F 12.9 °F 81% 29.72 in 9.0 mi WSW 13.8 mph - 0.00 in Snow Light Snow
3:56 AM 19.0 °F 4.0 °F 15.1 °F 85% 29.66 in 9.0 mi WSW 17.3 mph 23.0 mph 0.00 in Snow Light Snow
4:56 AM 21.9 °F 9.2 °F 16.0 °F 78% 29.62 in 10.0 mi WSW 13.8 mph 24.2 mph 0.00 in Snow Light Snow
5:56 AM 21.9 °F 6.9 °F 16.0 °F 78% 29.58 in 10.0 mi WSW 19.6 mph 26.5 mph 0.00 in Snow Light Snow
6:56 AM 23.0 °F 7.6 °F 17.1 °F 78% 29.56 in 10.0 mi WSW 21.9 mph 28.8 mph 0.00 in   Overcast
7:56 AM 23.0 °F 9.6 °F 17.1 °F 78% 29.60 in 10.0 mi West 16.1 mph 23.0 mph N/A   Partly Cloudy
8:46 AM 23.0 °F 11.1 °F 17.6 °F 80% 29.53 in 10.0 mi West 12.7 mph - N/A   Mostly Cloudy
8:56 AM 23.0 °F 10.1 °F 18.0 °F 81% 29.61 in 10.0 mi West 15.0 mph 20.7 mph N/A   Overcast
9:56 AM 25.0 °F 14.2 °F 18.0 °F 75% 29.61 in 10.0 mi West 11.5 mph - N/A   Overcast
10:56 AM 28.0 °F 18.6 °F 19.9 °F 72% 29.61 in 10.0 mi West 10.4 mph - N/A   Overcast
11:56 AM 28.9 °F 19.2 °F 21.0 °F 72% 29.59 in 10.0 mi West 11.5 mph - N/A   Overcast
12:56 PM 30.0 °F 20.5 °F 21.9 °F 72% 29.57 in 10.0 mi West 11.5 mph - N/A   Overcast
1:56 PM 30.9 °F 22.2 °F 21.9 °F 69% 29.55 in 10.0 mi WSW 10.4 mph - N/A   Overcast
2:56 PM 30.9 °F 25.2 °F 23.0 °F 72% 29.54 in 10.0 mi West 5.8 mph - N/A   Overcast
3:23 PM 30.2 °F 26.7 °F 23.0 °F 75% 29.46 in 10.0 mi South 3.5 mph - N/A   Partly Cloudy
3:56 PM 32.0 °F 26.4 °F 21.9 °F 66% 29.54 in 10.0 mi SW 5.8 mph - N/A   Clear
4:34 PM 30.2 °F 25.4 °F 23.0 °F 75% 29.49 in 10.0 mi West 4.6 mph - N/A   Mostly Cloudy
4:56 PM 30.9 °F - 23.0 °F 72% 29.58 in 10.0 mi Calm Calm - N/A   Overcast
5:56 PM 30.0 °F 25.2 °F 23.0 °F 75% 29.55 in 10.0 mi South 4.6 mph - N/A   Overcast
6:56 PM 30.0 °F 25.2 °F 23.0 °F 75% 29.56 in 10.0 mi SSW 4.6 mph - N/A   Overcast
7:33 PM 30.2 °F - 24.8 °F 80% 29.49 in 10.0 mi Calm Calm - N/A   Overcast
7:56 PM 30.0 °F - 23.0 °F 75% 29.57 in 10.0 mi Calm Calm - N/A   Overcast
8:56 PM 28.9 °F 22.8 °F 24.1 °F 82% 29.58 in 10.0 mi NNE 5.8 mph - N/A   Overcast
9:36 PM 28.4 °F 21.2 °F 24.8 °F 86% 29.52 in 10.0 mi NNE 6.9 mph - N/A   Overcast
9:56 PM 28.0 °F 19.3 °F 26.1 °F 92% 29.61 in 6.0 mi NNE 9.2 mph - N/A   Overcast
10:12 PM 26.6 °F 16.2 °F 24.8 °F 93% 29.54 in 6.0 mi NNE 11.5 mph 18.4 mph 0.00 in Snow Light Snow
10:56 PM 23.0 °F 11.7 °F 21.0 °F 92% 29.65 in 6.0 mi North 11.5 mph - 0.00 in Snow Light Snow
11:56 PM 19.0 °F 5.6 °F 17.1 °F 92% 29.69 in 10.0 mi North 13.8 mph - 0.00 in Snow Light Snow